[[{"header":{"parameterUnit":"m.s-1","parameterCategory":1,"la1":30.2991,"la2":30.254,"lo1":-89.0895,"lo2":-89.0444,"dy":0.0017,"dx":0.0017,"nx":28,"ny":28,"refTime":"2024-06-26T21:00:00:Z","depth":0,"parameterNumber":2,"parameterNumberName":"U-component_of_WINDS"},"data":[0,0,0,0,0,0,0,0,0,0,0,0,0,0,0,0,0,0,0,0,0,0,0,0,0,0,0,0,0,0,0,0,0,0,0,0,0,0,0,0,0,0,0,0,0,0,0,0,0,0,0,0,0,0,0,0,0,0,3.8831,3.8832,0,3.8905,3.8906,3.8907,3.8864,3.8862,3.886,3.8858,3.8939,3.8943,3.8947,0,0,0,0,0,0,0,0,0,0,0,0,0,3.8658,3.8661,3.8831,3.8832,3.8833,3.8905,3.8906,3.8907,3.8865,3.8862,3.886,3.8857,3.8937,3.8942,3.8947,0,0,0,0,0,0,0,0,0,0,0,0,0,3.8733,3.8663,3.8831,3.882,3.882,3.8905,3.8906,3.8907,3.8865,3.8862,3.8859,3.8856,3.8936,3.8942,3.8948,3.9048,0,0,3.8967,3.8969,0,0,0,0,0,0,0,0,3.8729,3.8739,3.8821,3.8821,3.8821,3.8872,3.8874,3.8955,3.8866,3.8848,3.8858,3.8855,3.8919,3.8927,3.8948,3.9052,3.9055,3.8967,3.8971,3.8973,3.8975,0,0,0,0,0,0,0,3.8724,3.8736,3.886,3.8822,3.8822,3.8814,3.8821,3.8889,3.8901,3.885,3.8847,3.8856,3.8919,3.8942,3.8949,3.9057,3.8967,3.8972,3.8976,3.8979,3.9249,3.9253,0,0,0,0,0,0,3.8718,3.8732,3.8858,3.8862,3.8766,3.8819,3.8827,3.8859,3.89,3.8903,3.8858,3.8853,3.8933,3.8942,3.8952,3.9074,3.8973,3.8979,3.8983,3.9246,3.925,3.9254,0,0,0,0,0,0,3.8715,3.873,3.8855,3.8796,3.8812,3.8825,3.8862,3.8862,3.8885,3.8906,3.8909,3.8879,3.8931,3.8943,3.9025,3.9076,3.8982,3.8988,3.9242,3.9247,3.9252,3.9317,0,0,0,0,0,0,3.871,3.8729,3.8766,3.8797,3.8815,3.8925,3.8865,3.8866,3.8895,3.8889,3.8927,3.893,3.8929,3.9016,3.9031,3.9083,3.8992,3.9237,3.9244,3.925,3.9311,3.9324,3.9336,0,0,0,0,0,3.8704,3.8782,3.8768,3.8784,3.8861,3.8928,3.8938,3.8935,3.8899,3.8938,3.8952,3.8929,3.9067,3.9024,3.9041,3.9095,3.9234,3.9242,3.925,3.9305,3.9321,3.9335,0,0,0,0,0,0,3.8758,3.8786,3.8771,3.8861,3.8892,3.8921,3.8969,3.8952,3.8995,3.8988,3.8983,3.8992,3.9077,3.9094,3.9046,3.9196,3.9145,3.9157,3.9182,3.9198,3.921,3.9205,3.8997,0,0,0,0,0,3.878,3.8831,3.8853,3.8931,3.8947,3.8955,3.8984,3.8979,3.9012,3.9025,3.9045,3.9079,3.9131,3.9165,3.9213,3.9312,3.9321,3.9358,3.937,3.9381,3.9391,3.9447,3.9464,3.928,3.928,3.928,0,0,3.8827,3.8849,3.8881,3.8942,3.8966,3.902,3.8967,3.9026,3.9067,3.9035,3.9113,3.9129,3.9167,3.9258,3.9299,3.9275,3.9444,3.9391,3.9399,3.9404,3.9457,3.9475,3.949,3.9285,3.9284,3.9283,0,0,3.8941,3.8961,3.9029,3.9053,3.9089,3.9094,3.911,3.9142,3.9151,3.9228,3.9206,3.9255,3.9343,3.9371,3.9397,3.9522,3.9504,3.9538,3.9604,3.9658,3.9673,3.9686,3.9733,3.9749,3.9548,3.9548,3.9548,0,3.8995,3.9074,3.9066,3.9127,3.9156,3.9127,3.9197,3.9222,3.9272,3.9293,3.9265,3.9375,3.9399,3.9497,3.9528,3.9549,3.9569,3.9535,3.9671,3.9684,3.9696,3.9741,3.9758,3.9552,3.9552,3.9552,3.9551,0,3.914,3.9196,3.9246,3.9295,3.9328,3.9394,3.9397,3.9433,3.9424,3.9433,3.9514,3.9541,3.9595,3.9617,3.961,3.9716,3.9699,3.9671,3.9621,3.9718,3.976,3.9776,3.9558,3.9557,3.9556,3.9555,0,0,3.9291,3.9334,3.9353,3.9375,3.9412,3.9456,3.9521,3.9572,3.9604,3.9639,3.9695,3.977,3.9744,3.9774,3.9769,3.9817,3.9917,3.9783,3.9784,3.9809,4.0037,4.0059,4.0079,3.9903,3.9907,3.9909,4.0034,0,3.9409,3.952,3.9515,3.962,3.9672,3.9646,3.9703,3.9733,3.9743,3.979,3.9801,3.9855,3.9816,3.9834,3.988,3.9895,3.9963,3.9885,3.9958,3.996,3.9951,4.01,4.0124,4.0241,4.005,4.0053,4.0055,0,3.9561,3.9601,3.9711,3.9741,3.9763,3.9814,3.9861,3.9906,3.994,3.9944,3.9977,3.9965,4.0033,3.9979,4.0073,4.0021,4.005,4.0062,4.0066,4.0075,4.0015,4.0115,4.0278,4.0297,4.008,4.0078,4.0076,0,3.9663,3.9744,3.9821,3.984,3.9877,3.9914,3.9931,3.9962,3.9994,4.0035,4.0056,4.0106,4.0134,4.0173,4.0176,4.0136,4.0271,4.0217,4.0279,4.0279,4.031,4.0309,4.0483,4.0326,4.0325,4.0325,4.0325,0,3.9796,3.9865,3.9867,3.9914,3.9991,3.9985,4.0062,4.0076,4.0104,4.0155,4.0135,4.0184,4.0183,4.0234,4.0236,4.0315,4.0327,4.0334,4.0334,4.0337,4.0336,4.0357,4.035,4.033,4.0329,4.0328,4.0327,0,3.9924,3.9927,4.001,4.0037,4.0046,4.0102,4.0127,4.0173,4.018,4.0246,4.0261,4.0274,4.0332,4.0337,4.0405,4.0407,4.0503,4.0493,4.0491,4.049,4.0552,4.0547,4.0747,4.0774,4.0598,4.0599,4.0601,0,4.0009,4.0062,4.0095,4.0127,4.0146,4.0198,4.023,4.0226,4.026,4.0304,4.0345,4.0401,4.0445,4.054,4.0557,4.0609,4.0602,4.0668,4.061,4.0611,4.0605,4.0603,4.0609,4.068,4.0682,4.0684,4.0685,0,4.0162,4.0161,4.0207,4.0254,4.0292,4.0329,4.0364,4.0392,4.0393,4.0433,4.0491,4.0525,4.0594,4.0651,4.0702,4.0721,4.0705,4.0703,4.072,4.0725,4.0722,4.0727,4.0524,4.0699,4.0698,4.0697,4.0696,4.0695,4.0273,4.0319,4.0349,4.0402,4.0427,4.046,4.0505,4.0518,4.0566,4.0621,4.0615,4.0681,4.0715,4.0781,4.0805,4.0857,4.0835,4.086,4.0867,4.0873,4.0881,4.0712,4.0866,4.0866,4.0866,4.0865,4.0865,0,4.0427,4.0445,4.0492,4.0541,4.0583,4.056,4.0598,4.0635,4.0692,4.0724,4.0768,4.0836,4.0891,4.0911,4.0965,4.1003,4.0997,4.1018,4.1016,4.1021,4.0896,4.0877,4.1022,4.1022,4.1022,4.1022,4.1022,4.1022,4.0511,4.0588,4.0591,4.0681,4.0699,4.0762,4.0785,4.0816,4.0842,4.0918,4.0963,4.0975,4.1004,4.1059,4.1109,4.1114,4.1136,4.1161,4.1162,4.1046,4.103,4.1015,4.0997,4.1165,4.1165,4.1283,4.1284,4.1285]},{"header":{"parameterUnit":"m.s-1","parameterCategory":1,"la1":30.2991,"la2":30.254,"lo1":-89.0895,"lo2":-89.0444,"dy":0.0017,"dx":0.0017,"nx":28,"ny":28,"refTime":"2024-06-26T21:00:00:Z","depth":0,"parameterNumber":3,"parameterNumberName":"V-component_of_WINDS"},"data":[0,0,0,0,0,0,0,0,0,0,0,0,0,0,0,0,0,0,0,0,0,0,0,0,0,0,0,0,0,0,0,0,0,0,0,0,0,0,0,0,0,0,0,0,0,0,0,0,0,0,0,0,0,0,0,0,0,0,1.2793,1.2793,0,1.2798,1.2798,1.2798,1.2783,1.2783,1.2782,1.2782,1.2786,1.2787,1.2787,0,0,0,0,0,0,0,0,0,0,0,0,0,1.2769,1.277,1.2793,1.2793,1.2793,1.2798,1.2798,1.2798,1.2783,1.2783,1.2782,1.2782,1.2786,1.2787,1.2787,0,0,0,0,0,0,0,0,0,0,0,0,0,1.2778,1.277,1.2793,1.2786,1.2786,1.2798,1.2798,1.2798,1.2783,1.2783,1.2782,1.2781,1.2786,1.2787,1.2787,1.2806,0,0,1.279,1.279,0,0,0,0,0,0,0,0,1.2777,1.2778,1.2787,1.2787,1.2786,1.2789,1.2791,1.2801,1.2784,1.2784,1.2782,1.2781,1.2788,1.2788,1.2791,1.2806,1.2806,1.279,1.279,1.2791,1.2791,0,0,0,0,0,0,0,1.2777,1.2778,1.2795,1.2787,1.2787,1.2783,1.2783,1.2793,1.279,1.2784,1.2783,1.2784,1.2787,1.279,1.2791,1.2806,1.279,1.2791,1.2791,1.2791,1.2835,1.2836,0,0,0,0,0,0,1.2777,1.2778,1.2795,1.2795,1.278,1.2784,1.2784,1.2789,1.279,1.2789,1.2785,1.2783,1.2789,1.279,1.2791,1.2811,1.2791,1.2792,1.2792,1.2834,1.2835,1.2836,0,0,0,0,0,0,1.2777,1.2779,1.2795,1.2786,1.2788,1.2785,1.279,1.2789,1.2792,1.279,1.2789,1.2788,1.2788,1.279,1.2802,1.2811,1.2792,1.2793,1.2833,1.2834,1.2835,1.2853,0,0,0,0,0,0,1.2776,1.2779,1.2786,1.2786,1.2788,1.2806,1.2791,1.279,1.2794,1.2792,1.2793,1.2792,1.2788,1.2801,1.2803,1.2812,1.2793,1.2833,1.2834,1.2835,1.2851,1.2854,1.2857,0,0,0,0,0,1.2775,1.2791,1.2787,1.2789,1.2798,1.2807,1.2808,1.2803,1.2794,1.2801,1.28,1.2792,1.281,1.2802,1.2804,1.2814,1.2832,1.2834,1.2835,1.285,1.2854,1.2857,0,0,0,0,0,0,1.2792,1.2791,1.2786,1.2803,1.2805,1.2804,1.2813,1.2807,1.2811,1.281,1.2803,1.2803,1.2816,1.2816,1.2808,1.2831,1.2819,1.2821,1.283,1.2834,1.2836,1.2836,1.2794,0,0,0,0,0,1.2798,1.2806,1.2804,1.2819,1.282,1.2816,1.282,1.2816,1.2818,1.2819,1.2818,1.282,1.2826,1.283,1.2835,1.2851,1.285,1.2859,1.2861,1.2864,1.2865,1.2872,1.2876,1.2841,1.2841,1.2841,0,0,1.281,1.281,1.2815,1.2822,1.2823,1.2831,1.2817,1.2826,1.2831,1.282,1.2831,1.2831,1.2832,1.2846,1.2852,1.2846,1.2875,1.2866,1.2867,1.2868,1.2874,1.2878,1.2881,1.2842,1.2842,1.2841,0,0,1.2835,1.2836,1.2848,1.2849,1.2851,1.2848,1.2851,1.2851,1.285,1.2861,1.2852,1.2858,1.2869,1.287,1.2871,1.2895,1.2888,1.2897,1.2911,1.2918,1.2921,1.2923,1.2931,1.2934,1.2899,1.2899,1.2899,0,1.2849,1.286,1.2855,1.2863,1.2866,1.2856,1.2867,1.2868,1.2872,1.2874,1.2867,1.2879,1.288,1.2893,1.2899,1.2901,1.2903,1.2897,1.2921,1.2923,1.2925,1.2932,1.2935,1.29,1.29,1.29,1.29,0,1.2877,1.2885,1.2894,1.2897,1.2901,1.2911,1.2906,1.291,1.2905,1.2903,1.2914,1.2914,1.2918,1.2921,1.2917,1.2933,1.2929,1.2922,1.2911,1.293,1.2936,1.2939,1.2901,1.2901,1.2901,1.2901,0,0,1.2914,1.2912,1.2916,1.2916,1.2917,1.2923,1.2932,1.2936,1.2939,1.2942,1.2948,1.2957,1.295,1.2952,1.2947,1.2954,1.2971,1.2945,1.2945,1.2949,1.2988,1.2993,1.2996,1.2966,1.2967,1.2967,1.2987,0,1.2937,1.2953,1.2947,1.2963,1.2969,1.2959,1.2967,1.2967,1.2965,1.297,1.2967,1.2973,1.2964,1.2964,1.297,1.2968,1.2978,1.2966,1.2972,1.2972,1.2971,1.3,1.3005,1.3024,1.299,1.299,1.2991,0,1.2968,1.297,1.2987,1.2985,1.2987,1.2994,1.2997,1.3002,1.3002,1.3,1.3001,1.2995,1.3003,1.2992,1.3002,1.2993,1.2995,1.2994,1.2995,1.2995,1.2982,1.2999,1.303,1.3033,1.2995,1.2994,1.2994,0,1.2991,1.2999,1.3009,1.3011,1.3009,1.3014,1.3013,1.3013,1.3015,1.3017,1.3019,1.3022,1.3024,1.3026,1.302,1.3013,1.303,1.3019,1.3028,1.3028,1.3032,1.3032,1.3063,1.3035,1.3034,1.3034,1.3034,0,1.3018,1.3028,1.302,1.3026,1.3037,1.303,1.304,1.3038,1.3038,1.3043,1.3035,1.304,1.3032,1.3036,1.3032,1.304,1.3041,1.3039,1.3037,1.3039,1.3039,1.304,1.3038,1.3035,1.3035,1.3035,1.3035,0,1.3046,1.3041,1.3051,1.3049,1.3048,1.3056,1.3053,1.3058,1.3055,1.3062,1.3063,1.3058,1.3062,1.3056,1.306,1.3057,1.3068,1.3065,1.3068,1.3067,1.3076,1.3075,1.3108,1.3112,1.3082,1.3082,1.3082,0,1.3063,1.307,1.3068,1.3071,1.3071,1.3075,1.3077,1.3071,1.3073,1.3073,1.3078,1.3081,1.3084,1.3091,1.3087,1.309,1.3086,1.3097,1.3086,1.3087,1.3085,1.3084,1.3084,1.31,1.31,1.31,1.31,0,1.3093,1.309,1.3094,1.3096,1.3099,1.31,1.3101,1.3104,1.3096,1.3099,1.3103,1.3105,1.3109,1.3112,1.3113,1.3112,1.3105,1.3104,1.3106,1.3108,1.3109,1.3107,1.3074,1.3103,1.3103,1.3103,1.3103,1.3102,1.3116,1.3121,1.312,1.3124,1.3123,1.3124,1.3129,1.3125,1.3129,1.3131,1.3126,1.3131,1.313,1.3131,1.313,1.3134,1.3129,1.3132,1.3133,1.3133,1.3134,1.3109,1.3134,1.3134,1.3134,1.3134,1.3134,0,1.3145,1.3143,1.3147,1.3148,1.315,1.3143,1.3143,1.3146,1.315,1.315,1.3152,1.3156,1.3159,1.3155,1.3157,1.316,1.3156,1.316,1.316,1.3159,1.3139,1.3137,1.3163,1.3163,1.3163,1.3163,1.3163,1.3163,1.316,1.3168,1.3165,1.3173,1.3171,1.3176,1.3176,1.3176,1.3176,1.318,1.3182,1.318,1.3178,1.3179,1.3181,1.318,1.318,1.3185,1.3183,1.3164,1.3161,1.3158,1.3156,1.3186,1.3186,1.3202,1.3203,1.3203]}]]